| time (UTC) | temp F | wind direction | speed MPH | gust MPH | rain 1hr in | rain 24hr in | rain mn in | humidity % | barometer mb |
| 20260502233048 | 83 | 110 | 8.0 | 13.0 | 0.00 | 0.00 | 0.00 | 87 | 1009.9 |
| 20260502231615 | 84 | 70 | 3.0 | 13.0 | 0.00 | 0.00 | 0.00 | 85 | 1009.5 |
| 20260502230051 | 84 | 101 | 7.0 | 19.0 | 0.00 | 0.00 | 0.00 | 83 | 1009.9 |
| 20260502224558 | 85 | 113 | 8.0 | 18.0 | 0.00 | 0.00 | 0.00 | 82 | 1009.8 |
| 20260502223056 | 86 | 110 | 7.0 | 22.0 | 0.00 | 0.00 | 0.00 | 81 | 1009.4 |
| 20260502221556 | 86 | 96 | 8.0 | 17.0 | 0.00 | 0.00 | 0.00 | 80 | 1009.1 |
| 20260502220051 | 86 | 96 | 9.0 | 16.0 | 0.00 | 0.00 | 0.00 | 79 | 1009.5 |
| 20260502214555 | 85 | 85 | 5.0 | 10.0 | 0.00 | 0.00 | 0.00 | 81 | 1010.2 |
| 20260502213052 | 85 | 126 | 6.0 | 12.0 | 0.00 | 0.00 | 0.00 | 80 | 1010.5 |
| 20260502211559 | 85 | 131 | 6.0 | 13.0 | 0.00 | 0.00 | 0.00 | 80 | 1010.6 |
| 20260502210054 | 87 | 88 | 3.0 | 13.0 | 0.00 | 0.00 | 0.00 | 78 | 1010.3 |
| 20260502204554 | 86 | 108 | 5.0 | 14.0 | 0.00 | 0.00 | 0.00 | 78 | 1010.4 |
| 20260502203052 | 86 | 87 | 7.0 | 17.0 | 0.00 | 0.00 | 0.00 | 78 | 1010.3 |
| 20260502201550 | 87 | 118 | 4.0 | 13.0 | 0.00 | 0.00 | 0.00 | 76 | 1010.3 |
| 20260502200050 | 87 | 94 | 6.0 | 15.0 | 0.00 | 0.00 | 0.00 | 77 | 1010.5 |
| 20260502194552 | 87 | 98 | 7.0 | 15.0 | 0.00 | 0.00 | 0.00 | 76 | 1010.6 |
| 20260502193104 | 87 | 181 | 7.0 | 15.0 | 0.00 | 0.00 | 0.00 | 76 | 1010.6 |
| 20260502191559 | 87 | 139 | 7.0 | 14.0 | 0.00 | 0.00 | 0.00 | 76 | 1010.7 |
| 20260502190050 | 88 | 94 | 4.0 | 13.0 | 0.00 | 0.00 | 0.00 | 74 | 1011.0 |
| 20260502184559 | 88 | 188 | 6.0 | 17.0 | 0.00 | 0.00 | 0.00 | 74 | 1011.0 |
| 20260502183048 | 88 | 120 | 7.0 | 17.0 | 0.00 | 0.00 | 0.00 | 76 | 1011.2 |
| 20260502181551 | 87 | 96 | 9.0 | 16.0 | 0.00 | 0.00 | 0.00 | 74 | 1011.6 |
| 20260502163052 | 86 | 95 | 8.0 | 19.0 | 0.00 | 0.00 | 0.00 | 77 | 1012.2 |
| 20260502161619 | 86 | 70 | 11.0 | 22.0 | 0.00 | 0.00 | 0.00 | 78 | 1012.2 |
| 20260502160118 | 86 | 86 | 8.0 | 21.0 | 0.00 | 0.00 | 0.00 | 78 | 1012.4 |
| 20260502151555 | 86 | 52 | 10.0 | 20.0 | 0.00 | 0.00 | 0.00 | 79 | 1012.3 |
| 20260502130110 | 83 | 81 | 8.0 | 15.0 | 0.00 | 0.00 | 0.00 | 83 | 1011.1 |
| 20260502123123 | 82 | 109 | 6.0 | 14.0 | 0.00 | 0.00 | 0.00 | 85 | 1011.0 |
| 20260502121553 | 81 | 104 | 6.0 | 12.0 | 0.00 | 0.00 | 0.00 | 87 | 1011.0 |
| 20260502120119 | 81 | 91 | 6.0 | 14.0 | 0.00 | 0.00 | 0.00 | 87 | 1010.8 |
| 20260502114558 | 80 | 110 | 4.0 | 15.0 | 0.00 | 0.00 | 0.00 | 88 | 1010.5 |
| 20260502113056 | 80 | 116 | 5.0 | 14.0 | 0.00 | 0.00 | 0.00 | 89 | 1010.4 |
| 20260502111555 | 80 | 89 | 2.0 | 8.0 | 0.00 | 0.00 | 0.00 | 89 | 1010.3 |
| 20260502110051 | 79 | 105 | 2.0 | 11.0 | 0.00 | 0.00 | 0.00 | 89 | 1010.1 |
| 20260502104549 | 80 | 167 | 3.0 | 8.0 | 0.00 | 0.00 | 0.00 | 90 | 1009.9 |
| 20260502103055 | 79 | 103 | 5.0 | 12.0 | 0.00 | 0.00 | 0.00 | 90 | 1009.4 |
| 20260502101555 | 79 | 45 | 2.0 | 14.0 | 0.00 | 0.00 | 0.00 | 89 | 1009.5 |
| 20260502070051 | 80 | 62 | 8.0 | 15.0 | 0.00 | 0.00 | 0.00 | 89 | 1009.9 |
| 20260502064555 | 80 | 89 | 4.0 | 11.0 | 0.00 | 0.00 | 0.00 | 89 | 1010.0 |
| 20260502063057 | 80 | 111 | 6.0 | 14.0 | 0.00 | 0.00 | 0.00 | 89 | 1010.0 |
| 20260502061551 | 80 | 38 | 4.0 | 9.0 | 0.00 | 0.00 | 0.00 | 89 | 1010.1 |
| 20260502060055 | 80 | 15 | 3.0 | 9.0 | 0.00 | 0.00 | 0.00 | 89 | 1010.3 |
| 20260502054551 | 80 | 71 | 2.0 | 11.0 | 0.00 | 0.00 | 0.00 | 89 | 1010.6 |
| 20260502053054 | 80 | 55 | 5.0 | 12.0 | 0.00 | 0.00 | 0.00 | 89 | 1010.8 |
| 20260502051551 | 80 | 105 | 4.0 | 10.0 | 0.00 | 0.00 | 0.00 | 89 | 1011.1 |
| 20260502050050 | 80 | 44 | 5.0 | 11.0 | 0.00 | 0.00 | 0.00 | 89 | 1011.2 |
| 20260502044551 | 80 | 74 | 3.0 | 7.0 | 0.00 | 0.00 | 0.00 | 89 | 1011.3 |
| 20260502043107 | 80 | 0 | 3.0 | 9.0 | 0.00 | 0.00 | 0.00 | 87 | 1011.5 |
| 20260502041555 | 80 | 99 | 7.0 | 16.0 | 0.00 | 0.00 | 0.00 | 87 | 1011.5 |
| 20260502040106 | 80 | 105 | 4.0 | 8.0 | 0.00 | 0.00 | 0.00 | 88 | 1011.5 |
| 20260502034549 | 80 | 110 | 5.0 | 10.0 | 0.00 | 0.00 | 0.00 | 87 | 1011.5 |
| 20260502033056 | 81 | 130 | 3.0 | 10.0 | 0.00 | 0.00 | 0.00 | 87 | 1011.4 |
| 20260502031550 | 81 | 141 | 6.0 | 12.0 | 0.00 | 0.00 | 0.00 | 87 | 1011.2 |
| 20260502030051 | 80 | 96 | 4.0 | 10.0 | 0.00 | 0.00 | 0.00 | 87 | 1011.0 |
| 20260502024609 | 80 | 109 | 4.0 | 10.0 | 0.00 | 0.00 | 0.00 | 88 | 1010.9 |
| 20260502023049 | 80 | 91 | 3.0 | 10.0 | 0.00 | 0.00 | 0.00 | 88 | 1010.8 |
| 20260502021603 | 81 | 76 | 5.0 | 15.0 | 0.00 | 0.00 | 0.00 | 87 | 1010.6 |
| 20260502020046 | 80 | 114 | 3.0 | 9.0 | 0.00 | 0.00 | 0.00 | 87 | 1010.6 |
| 20260502014547 | 81 | 112 | 2.0 | 7.0 | 0.00 | 0.00 | 0.00 | 87 | 1010.2 |
| 20260502013110 | 81 | 129 | 5.0 | 10.0 | 0.00 | 0.00 | 0.00 | 87 | 1010.1 |
| 20260502011549 | 81 | 136 | 1.0 | 10.0 | 0.00 | 0.00 | 0.00 | 87 | 1010.0 |
| 20260502010100 | 81 | 96 | 4.0 | 11.0 | 0.00 | 0.00 | 0.00 | 87 | 1009.6 |
| 20260502004603 | 81 | 68 | 5.0 | 13.0 | 0.00 | 0.00 | 0.00 | 86 | 1009.4 |
| 20260502003053 | 81 | 94 | 4.0 | 10.0 | 0.00 | 0.00 | 0.00 | 87 | 1009.2 |
| 20260502001554 | 82 | 95 | 3.0 | 12.0 | 0.00 | 0.00 | 0.00 | 86 | 1009.0 |
| 20260502000054 | 82 | 75 | 5.0 | 14.0 | 0.00 | 0.00 | 0.00 | 85 | 1008.9 |
| 20260501234553 | 82 | 98 | 5.0 | 19.0 | 0.00 | 0.00 | 0.00 | 85 | 1008.7 |